FW8095 Weather Reports


Display with metric or nautical units.
time (UTC)temp
F
wind
direction
speed
MPH
gust
MPH
rain 1hr
in
rain 24hr
in
rain mn
in
humidity
%
barometer
mb
20260902000043 89 0 0.0 0.0 0.00 0.00 0.00 60 1017.5
20260901234545 90 0 0.0 1.0 0.00 0.00 0.00 58 1017.5
20260901233039 91 265 0.0 2.0 0.00 0.00 0.00 56 1017.6
20260901231539 91 64 0.0 3.0 0.00 0.00 0.00 55 1017.5
20260901230046 92 0 0.0 3.0 0.00 0.00 0.00 54 1017.7
20260901224549 92 274 0.0 3.0 0.00 0.00 0.00 54 1017.5
20260901223051 93 259 1.0 3.0 0.00 0.00 0.00 53 1017.4
20260901221558 93 110 0.0 2.0 0.00 0.00 0.00 52 1017.3
20260901220054 93 263 0.0 3.0 0.00 0.00 0.00 52 1017.4
20260901214541 93 0 1.0 3.0 0.00 0.00 0.00 49 1017.4
20260901213050 93 0 0.0 5.0 0.00 0.00 0.00 51 1017.4
20260901211547 94 94 1.0 5.0 0.00 0.00 0.00 49 1017.5
20260901210046 94 99 1.0 5.0 0.00 0.00 0.00 48 1017.6
20260901204543 94 68 1.0 4.0 0.00 0.00 0.00 51 1017.6
20260901203054 95 114 0.0 3.0 0.00 0.00 0.00 50 1017.8
20260901201546 95 219 1.0 4.0 0.00 0.00 0.00 49 1018.1
20260901200042 96 167 1.0 6.0 0.00 0.00 0.00 49 1018.3
20260901194545 97 269 1.0 3.0 0.00 0.00 0.00 45 1018.4
20260901193051 97 0 0.0 4.0 0.00 0.00 0.00 46 1018.6
20260901191557 96 101 1.0 2.0 0.00 0.00 0.00 47 1018.8
20260901190048 97 126 2.0 5.0 0.00 0.00 0.00 46 1019.1
20260901184548 97 98 1.0 5.0 0.00 0.00 0.00 45 1019.3
20260901183048 96 101 1.0 4.0 0.00 0.00 0.00 48 1019.4
20260901181558 96 105 1.0 5.0 0.00 0.00 0.00 47 1019.5
20260901180046 95 32 0.0 3.0 0.00 0.00 0.00 49 1019.3
20260901174549 97 250 0.0 5.0 0.00 0.00 0.00 49 1019.8
20260901173055 98 99 1.0 3.0 0.00 0.00 0.00 49 1019.9
20260901171600 96 105 2.0 5.0 0.00 0.00 0.00 51 1019.9
20260901170050 96 272 2.0 4.0 0.00 0.00 0.00 51 1020.2
20260901164548 96 96 1.0 4.0 0.00 0.00 0.00 53 1020.3
20260901163042 96 113 2.0 3.0 0.00 0.00 0.00 53 1020.3
20260901161555 95 44 1.0 3.0 0.00 0.00 0.00 53 1020.6
20260901160049 95 106 1.0 3.0 0.00 0.00 0.00 54 1020.6
20260901154555 94 97 1.0 4.0 0.00 0.00 0.00 57 1020.7
20260901153052 93 93 1.0 3.0 0.00 0.00 0.00 60 1020.8
20260901151545 93 105 2.0 3.0 0.00 0.00 0.00 61 1020.9
20260901150043 91 0 1.0 3.0 0.00 0.00 0.00 65 1020.9
20260901144550 90 139 0.0 3.0 0.00 0.00 0.00 67 1020.9
20260901143049 88 120 0.0 1.0 0.00 0.00 0.00 70 1021.1
20260901141550 86 0 0.0 2.0 0.00 0.00 0.00 75 1021.0
20260901140041 84 151 0.0 2.0 0.00 0.00 0.00 77 1020.9
20260901134542 82 127 0.0 2.0 0.00 0.00 0.00 79 1020.9
20260901133046 80 145 0.0 1.0 0.00 0.00 0.00 82 1020.9
20260901131546 78 0 0.0 1.0 0.00 0.00 0.00 85 1020.9
20260901130052 77 0 0.0 1.0 0.00 0.00 0.00 88 1020.9
20260901124541 76 118 0.0 0.0 0.00 0.00 0.00 90 1020.8
20260901123047 75 134 0.0 1.0 0.00 0.00 0.00 91 1020.6
20260901121543 74 0 0.0 1.0 0.00 0.00 0.00 93 1020.5
20260901120041 74 0 0.0 1.0 0.00 0.00 0.00 94 1020.3
20260901114604 73 0 0.0 0.0 0.00 0.00 0.00 94 1020.2
20260901113046 73 0 0.0 0.0 0.00 0.00 0.00 94 1019.9
20260901111550 73 0 0.0 0.0 0.00 0.00 0.00 94 1019.8
20260901110042 73 0 0.0 0.0 0.00 0.00 0.00 93 1019.7
20260901104546 73 0 0.0 0.0 0.00 0.00 0.00 93 1019.6
20260901103045 73 0 0.0 0.0 0.00 0.00 0.00 92 1019.4
20260901101545 73 0 0.0 0.0 0.00 0.00 0.00 92 1019.4
20260901100054 73 0 0.0 0.0 0.00 0.00 0.00 92 1019.4
20260901094544 74 0 0.0 0.0 0.00 0.00 0.00 92 1019.4
20260901093041 74 0 0.0 0.0 0.00 0.00 0.00 92 1019.3
20260901091548 74 0 0.0 0.0 0.00 0.00 0.00 92 1019.4
20260901090050 74 0 0.0 0.0 0.00 0.00 0.00 92 1019.3
20260901084550 74 0 0.0 0.0 0.00 0.00 0.00 91 1019.1
20260901083041 75 0 0.0 0.0 0.00 0.00 0.00 91 1019.0
20260901081548 75 0 0.0 0.0 0.00 0.00 0.00 90 1019.1
20260901080042 75 0 0.0 0.0 0.00 0.00 0.00 89 1018.9
20260901074548 76 0 0.0 0.0 0.00 0.00 0.00 89 1018.8
20260901073057 76 0 0.0 0.0 0.00 0.00 0.00 89 1018.8
20260901071543 76 0 0.0 0.0 0.00 0.00 0.00 89 1018.7
20260901064546 76 0 0.0 0.0 0.00 0.00 0.00 88 1018.7
20260901063041 77 0 0.0 0.0 0.00 0.00 0.00 87 1018.9
20260901061542 77 0 0.0 1.0 0.00 0.00 0.00 87 1018.9
20260901060047 77 0 0.0 0.0 0.00 0.00 0.00 87 1019.1
20260901054542 77 0 0.0 0.0 0.00 0.00 0.00 87 1019.0
20260901053053 77 0 0.0 0.0 0.00 0.00 0.00 87 1019.1
20260901051547 77 0 0.0 0.0 0.00 0.00 0.00 87 1019.1
20260901050045 77 0 0.0 0.0 0.00 0.00 0.00 87 1019.1
20260901044554 78 0 0.0 0.0 0.00 0.00 0.00 85 1019.1
20260901043048 78 0 0.0 0.0 0.00 0.00 0.00 85 1019.1
20260901041547 78 0 0.0 0.0 0.00 0.00 0.00 84 1019.1
20260901040050 79 0 0.0 0.0 0.00 0.00 0.00 83 1019.2
20260901034542 79 0 0.0 0.0 0.00 0.00 0.00 81 1019.3
20260901033100 80 0 0.0 0.0 0.00 0.00 0.00 80 1019.2
20260901031548 80 0 0.0 0.0 0.00 0.00 0.00 80 1019.4
20260901030047 80 0 0.0 0.0 0.00 0.00 0.00 79 1019.4
20260901024542 81 0 0.0 0.0 0.00 0.00 0.00 78 1019.3
20260901023049 82 0 0.0 0.0 0.00 0.00 0.00 76 1019.2
20260901021600 82 0 0.0 0.0 0.00 0.00 0.00 75 1019.2
20260901020047 83 0 0.0 0.0 0.00 0.00 0.00 75 1019.0
20260901014548 83 0 0.0 0.0 0.00 0.00 0.00 73 1018.8
20260901013051 83 0 0.0 0.0 0.00 0.00 0.00 73 1018.5
20260901011608 84 0 0.0 0.0 0.00 0.00 0.00 71 1018.2
20260901010046 85 0 0.0 0.0 0.00 0.00 0.00 69 1018.1
20260901004549 86 0 0.0 1.0 0.00 0.00 0.00 68 1018.0
20260901003048 86 0 0.0 0.0 0.00 0.00 0.00 66 1018.0
20260901001548 87 327 0.0 1.0 0.00 0.00 0.00 66 1017.9